Location: Unspecified
(0.0000°N, 0.0000°E)
Time: 14:32:58
(UTC+00:00)

S-56A Canister/Altair - All Passes

Search period start: 22 May 2015 00:00
Search period end: 01 June 2015 00:00
Orbit: 636 x 2499 km, 38.9° (Epoch: 17 May)

Date Brightness Start Highest point End Pass type
(mag) Time Alt. Az. Time Alt. Az. Time Alt. Az.
22 May - 01:20:09 10° WNW 01:27:00 16° NW 01:32:00 10° N visible
22 May - 09:52:02 10° NNW 09:56:27 48° NE 10:02:08 10° ESE daylight
22 May - 11:56:31 10° W 12:00:55 22° SSW 12:06:26 10° SSE daylight
22 May - 18:25:48 10° S 18:31:18 13° SSE 18:38:06 10° SE visible
22 May - 20:27:05 10° SSW 20:40:47 42° SE 20:53:28 10° ENE visible
22 May - 22:33:00 10° SW 22:48:05 73° NW 22:59:36 10° NE visible
23 May - 00:45:12 10° W 00:54:11 20° NW 01:00:49 10° N visible
23 May - 09:20:15 10° NNW 09:24:21 35° NE 09:29:19 10° ESE daylight
23 May - 11:24:08 10° W 11:28:28 25° SSW 11:33:57 10° SSE daylight
23 May - 17:54:54 10° SSE 17:57:47 11° SSE 18:01:59 10° SE daylight
23 May - 19:54:23 10° SSW 20:07:26 38° SE 20:20:14 10° E visible
23 May - 21:59:39 10° SW 22:14:59 82° NW 22:27:13 10° NE visible
24 May - 00:10:38 10° W 00:21:18 25° NW 00:29:16 10° N visible
24 May - 08:48:32 10° NNW 08:52:16 26° NE 08:56:30 10° E daylight
24 May - 10:51:49 10° W 10:56:06 29° SW 11:01:32 10° SSE daylight
24 May - 19:21:48 10° SSW 19:34:04 33° SE 19:46:47 10° E visible
24 May - 21:26:27 10° SW 21:41:49 90° SE 21:54:42 10° NE visible
24 May - 23:36:20 10° W 23:48:22 30° NW 23:57:29 10° NNE visible
25 May - 08:16:54 10° N 08:20:06 20° NE 08:23:36 10° E daylight
25 May - 10:19:32 10° WNW 10:23:48 35° SW 10:29:09 10° SSE daylight
25 May - 18:49:21 10° SSW 19:00:42 29° SE 19:13:05 10° E visible
25 May - 20:53:22 10° SW 21:08:35 81° SE 21:22:03 10° NE visible
25 May - 23:02:17 10° WSW 23:15:21 36° NW 23:25:32 10° NNE visible
26 May - 07:45:24 10° N 07:47:54 15° NE 07:50:35 10° ENE daylight
26 May - 09:47:18 10° WNW 09:51:35 43° SW 09:56:48 10° SSE daylight
26 May - 18:17:04 10° SSW 18:27:21 25° SE 18:39:07 10° E visible
26 May - 20:20:25 10° SW 20:35:20 73° SE 20:49:16 10° NE visible
26 May - 22:28:25 10° WSW 22:42:17 42° NW 22:53:26 10° NNE visible
27 May - 07:14:17 10° NNE 07:15:39 11° NE 07:17:12 10° ENE daylight
27 May - 09:15:06 10° WNW 09:19:26 55° SW 09:24:29 10° SE daylight
27 May - 17:44:59 10° S 17:54:02 22° SE 18:04:51 10° E daylight
27 May - 19:47:36 10° SW 20:02:02 66° SE 20:16:19 10° ENE visible
27 May - 21:54:45 10° WSW 22:09:09 48° NW 22:21:11 10° NNE visible
28 May - 00:11:39 10° WNW 00:16:41 12° NW 00:20:13 10° NNW visible
28 May - 08:42:54 10° NW 08:47:20 74° SW 08:52:11 10° SE daylight
28 May - 17:13:08 10° S 17:20:44 18° SE 17:30:13 10° ESE daylight
28 May - 19:14:54 10° SW 19:28:45 58° SE 19:43:12 10° ENE visible
28 May - 21:21:15 10° WSW 21:35:57 55° NW 21:48:49 10° NNE visible
28 May - 23:35:45 10° WNW 23:43:33 15° NW 23:49:28 10° N visible
29 May - 08:10:44 10° NW 08:15:16 83° NE 08:19:55 10° SE daylight
29 May - 16:41:39 10° S 16:47:29 15° SSE 16:55:05 10° ESE daylight
29 May - 18:42:20 10° SSW 18:55:28 52° SE 19:09:56 10° ENE visible
29 May - 20:47:57 10° WSW 21:02:42 62° NW 21:16:18 10° NE visible
29 May - 23:00:41 10° WNW 23:10:22 19° NW 23:18:01 10° N visible
30 May - 07:38:34 10° NW 07:43:12 61° NE 07:47:38 10° ESE daylight
30 May - 09:45:47 10° SW 09:47:15 11° SSW 09:48:32 10° SSW daylight
30 May - 16:10:59 10° SSE 16:14:16 12° SSE 16:19:02 10° SE daylight
30 May - 18:09:54 10° SSW 18:22:14 45° SE 18:36:27 10° ENE visible
30 May - 20:14:48 10° WSW 20:29:26 69° NW 20:43:39 10° NE visible
30 May - 22:26:05 10° W 22:37:08 23° NW 22:46:12 10° N visible
31 May - 07:06:23 10° NNW 07:11:05 46° NE 07:15:22 10° ESE daylight
31 May - 09:12:29 10° WSW 09:14:54 14° SW 09:17:16 10° S daylight
31 May - 17:37:37 10° SSW 17:49:02 40° SE 18:02:48 10° ENE daylight
31 May - 19:41:49 10° SW 19:56:09 77° NW 20:10:52 10° NE visible
31 May - 21:51:49 10° W 22:03:52 27° NW 22:14:09 10° NNE visible
